Regional Weather Roundup
Issued by NWS

Home | Current Version | Previous Version | Text Only | Print | Product List | Glossary Off
Versions: 1 2 3 4 5 6 7 8 9 10 11 12 13 14 15 16 17 18 19 20 21 22 23 24 25 26 27 28 29 30 31 32 33 34 35 36 37 38 39 40 41 42 43 44 45 46 47 48 49 50

000
ASUS43 KFSD 271002
RWRSD

WEATHER ROUNDUP FOR SOUTH DAKOTA
NATIONAL WEATHER SERVICE SIOUX FALLS SD
400 AM CST FRI FEB 27 2015

NOTE: "FAIR" INDICATES FEW OR NO CLOUDS BELOW 12,000 FEET WITH NO
SIGNIFICANT WEATHER AND/OR OBSTRUCTIONS TO VISIBILITY.


SDZ001>005-009-010-012>017-271100-
NORTHWEST AND NORTH CENTRAL SOUTH DAKOTA

CITY           SKY/WX    TMP DP  RH WIND       PRES   REMARKS
BUFFALO          N/A     -5 -11  75 S8        30.16F WCI -20
FAITH            N/A     -5 -10  79 S13       30.34F WCI -24
MOBRIDGE       PTCLDY    -9 -13  83 SE3       30.41F
$$

SDZ012>016-024>037-041>051-057-063-072>074-271100-
SOUTHWEST AND SOUTH CENTRAL SOUTH DAKOTA

CITY           SKY/WX    TMP DP  RH WIND       PRES   REMARKS
RAPID CTY ARPT CLEAR     -6 -11  79 SE3       30.27F
PIERRE         CLEAR     -3  -8  79 SW3       30.46F
CUSTER         PTCLDY    -9 -16  71 W6        30.04F WCI -22
ELLSWORTH AFB  CLEAR      0  -8  69 S10       30.25F WCI -16
PHILIP         CLEAR    -10 -15  78 W3        30.41F
PINE RIDGE     CLEAR     -6 -12  75 CALM      30.30F
WINNER         FAIR       1  -9  62 SW8       30.46F WCI -13
$$

SDZ004>011-016>023-039-040-271100-
NORTHEAST SOUTH DAKOTA

CITY           SKY/WX    TMP DP  RH WIND       PRES   REMARKS
ABERDEEN       CLEAR    -15 -21  74 W6        30.51S WCI -29
WATERTOWN      PTCLDY   -14 -19  79 CALM      30.45S
SISSETON         N/A     -7 -13  75 W6        30.49S WCI -20
$$

SDZ017-020-022-023-036>040-048>070-271100-
SOUTHEAST SOUTH DAKOTA

CITY           SKY/WX    TMP DP  RH WIND       PRES   REMARKS
SIOUX FALLS    CLEAR     -9 -14  78 CALM      30.51F
HURON          PTCLDY   -14 -18  82 CALM      30.53F
MITCHELL       CLEAR     -5 -10  79 W6        30.55F WCI -18
YANKTON        CLEAR     -2  -9  71 W6        30.56S WCI -14
$$

ABBREVIATIONS USED IN REMARKS
   TC - TEMPERATURE IN CELSIUS
  WCI - WIND CHILL INDEX
   HX - HEAT INDEX
  VSB - VISIBILITY



USA.gov is the U.S. government's official web portal to all federal, state and local government web resources and services.